Погода в Тобольске

Погода в Тобольске : погода сейчас, прогноз погоды и архив. Всё, что Вы хотите узнать о погоде в Тобольске!

Хотите узнать прогноз погоды в Тобольске? Тогда Вам сюда: Погода в Тобольске

Поиск расширенной информации на нашем сайте:

Другие новости

Новости СМИ2

Главная страница сайта

Новости сайта

03.07.2017

Напоминаем, что на нашем специализированном сайте Метеоцентр.Азия вы можете получить высокодетализированные автоматические прогнозы погоды по пунктам России, СНГ и мира в авиационном формате (включающие направление и скорость ветра, видимость, явления погоды, количество и форму облачности, нижнюю и верхнюю границу облачности).


Погода в Тобольске - сегодня

Время (UTC), дата Ветер
(°,м/с) 
Видим.   Явления Облачность Т
(°С)
Тd
(°С)
f(%) Тe
(°С)
Pmin
(гПа)
dP
(гПа)
Po
(мм)
O2
(г/м3)
Тmin Tmax R s Состояние
почвы
00 15.08.18 200 (Ю) 20000 м  в посл. час гроза{ливн. осадки}  10/6 600 м кучево-дожд., средняя 
[Cb cap|Ac und]
+16.9 +15.8 93 +28  1007.6  -0.3  752  282           
03 15.08.18 150 (ЮВ) 20000 м    10/3 600 м кучево-дожд., средняя 
[Cb cap|Ac und]
+18.6 +17 90 +32  1007.3  -0.3  751  280  +16.1    0.0     
06 15.08.18 160 (Ю) 20000 м    10/5 600 м средняя 
[Sc|Ac und]
+23.2 +16.1 64 +34  1006.7  -0.5  751  275           
09 15.08.18 120 (ЮВ) 20000 м    10/4 600 м средняя, верхняя 
[Sc|Ac und|Ci sp]
+24.7 +17.4 64 +38  1005.5  -0.2  750  273           
12 15.08.18 170 (Ю) 20000 м    10/0 кучево-дожд., средняя, верхняя 
[Cb cap|Ac lent|Ci sp]
+23 +16.6 67 +35  1005.3  -0.2  750  275           
15 15.08.18 190 (Ю) 20000 м  гроза без осадков  10/10 600 м кучево-дожд. 
[Cb calv]
+20.3 +17.7 85 +34  1006  0.6  750  277    +24.8       
18 15.08.18 320 (СЗ) 10 км  {гроза, ливн. осадки}  10/4 600 м кучево-дожд., верхняя 
[Cb calv|Ci sp]
+16.6 +15.3 92 +27  1006.1  0.1  750  282           
21 15.08.18 340 (С) 10 км    10/10 600 м кучево-дожд. 
[Cb cap]
+16.7 +15.2 91 +27  1007.1  751  282           
00 16.08.18 350 (С) 20000 м  в посл. час ливневой дождь  10/10 600 м кучево-дожд. 
[Cb cap]
+15.5 +14.2 92 +22  1007.5  0.3  751  284           
03 16.08.18 360 (С) 10 км  слаб. ливневой дождь  10/10 600 м кучево-дожд. 
[Cb cap]
+15 +13.6 91 +21  1008.7  1.2  752  285  +15    0.3     
06 16.08.18 350 (С) 20000 м  {ливн. осадки}  10/10 300 м 
[Sc]
+15.7 +13.5 87 +22  1009.8  1.1  753  284           
09 16.08.18 360 (С) 3{10}  20000 м    9/9 600 м 
[Sc]
+18.9 +13.3 70 +26  1010.2  0.5  754  281           
12 16.08.18 340 (С) 20000 м    9/3 600 м средняя, верхняя 
[Cu med, cong|Ac lent|Ci sp]
+20.7 +11.8 57 +24  1010.9  0.7  754  280           
18 16.08.18 тихо ()   10 км    10/0 средняя, верхняя 
[Ac lent|Ci sp]
+13.8 +12.9 94 +19  1010.8  754  287           
21 16.08.18 120 (ЮВ) 10 км    10/0 верхняя 
[Ci sp]
+13.3 +12.4 94 +19  1009.6  -1.2  753  287           
00 17.08.18 100 (В) 10 км    10/0 средняя 
[Ac und]
+13.7 +12.8 94 +20  1008.5  -1.1  752  286           
03 17.08.18 160 (Ю) 20000 м    10/3 600 м средняя 
[Sc|Ac und]
+16.2 +12.8 80 +22  1007.5  -0.9  752  283  +13.3         
06 17.08.18 150 (ЮВ) 20000 м  {ливн. осадки}  10/6 600 м кучево-дожд., средняя 
[Cb cap|Ac und]
+16.7 +14.8 89 +25  1005.7  -1.8  750  282           
09 17.08.18 180 (Ю) 20000 м    10/8 600 м кучево-дожд., средняя 
[Cb cap|Ac und]
+19.3 +15.5 79 +30  1004.2  -1.5  749  279           
12 17.08.18 тихо ()   20000 м  в посл. час гроза{ливн. осадки}  10/8 600 м кучево-дожд., средняя 
[Cb cap|Ac und]
+16.9 +16.1 95 +28  1003.3  -0.9  748  280           
15 17.08.18 160 (Ю) 10 км  слаб. ливневой дождь{гроза}  10/8 600 м кучево-дожд., средняя 
[Cb cap|Ac und]
+16.9 +16.1 95 +29  1002.9  -0.4  748  280    +20  27     
18 17.08.18 280 (З) 10 км  {гроза, ливн. осадки}  9/9 300 м кучево-дожд. 
[Cb cap]
+14.4 +13.6 95 +21  1003.9  0.9  749  284           
21 17.08.18 260 (З) 10 км  в посл. час ливневой дождь  10/10 300 м кучево-дожд. 
[Cb cap]
+12.6 +11.9 95 +16  1003.7  -0.2  749  286           
00 18.08.18 250 (З) 20000 м  {ливн. осадки}  10/10 300 м кучево-дожд. 
[Cb cap]
+12.1 +11 93 +15  1003.7  749  287           
03 18.08.18 260 (З) 3{10}  10 км  слаб. морось  10/10 300 м 
[St]
+12 +10.9 93 +14  1004  0.3  749  287  +11.9       
Время (UTC), дата Ветер
(°,м/с) 
Видим.   Явления Облачность Т
(°С)
Тd
(°С)
f(%) Тe
(°С)
Pmin
(гПа)
dP
(гПа)
Po
(мм)
O2
(г/м3)
Тmin Tmax R s Состояние
почвы

Для получения пояснительной информации подведите курсор к названию столбца.

ПОГОДА в Тобольске - архив

Всё, что Вы хотите узнать о погоде в Тобольске - удобно и подробно!

Выберите нужную дату (начиная с 1 января 2015* года) и нажмите кнопку "Найти".
Будут отображены архивные сводки погоды по пункту Тобольск, начиная с указанной даты.


Отображать данные в формате CSV (для использования в таблицах Excel)


Внимание! Наш архив погоды предназначен исключительно для личного некоммерческого использования в познавательных целях. Если Вам необходимы официальные справки о состоянии погоды (для производственных, юридических, коммерческих и т.п. целей), обращайтесь в органы Росгидромета.

*Примечание: данная дата относится к архиву по метеостанциям СССР (Россия, СНГ, Балтия).
Архив по метеостанциям Зарубежной Европы и Азии (кроме Китая) хранится 10 дней, по другим регионам земного шара (Китай, Африка, Америка, Австралия, Океания) - 1 день.

Тобольск - район местоположения метеостанции


Название, широта, долгота, высота метеостанции:
Тобольск 58.2°ш. 68.2°д. 50 м над ур. моря [Российская Федерация]

Дополнительная информация

В oтличие oт бoльшинства пoгoдных сайтoв мы публикуем пoдрoбную метеoинфoрмацию в детальнoм прoфессиoнальнoм фoрмате.

Характеристики температуры и влажнoсти вoздуха измеряются на высoте 2 м в тени вдали oт зданий и деревьев.
Скoрoсть ветра измеряется на высoте 10 м (на урoвне рoста челoвека скoрoсть ветра ниже в 1.5-2 раза). Если метеoстанция нахoдится в гoрoде или в лесу, тo скoрoсть ветра занижена на 2-4 м/с пo сравнению с oткрытым местoм. Скoрoсть ветра над акватoриями крупных рек и oзёр, а также на вершинах хoлмoв на 2-5 м/с выше, чем в oбычных услoвиях.
Атмoсфернoе давление в разных тoчках местнoсти мoжет значительнo oтличаться oт давления на метеoстанции, в зависимoсти oт услoвий рельефа (при пoдъёме на 10 м давление пoнижается примернo на 1 мм рт.ст.).